Change the Weather History Date:

Thursday, March 1, 2012

  Actual Average Record
Temperature  
Mean Temperature 30 °F -  
Max Temperature 34 °F 34 °F 55 °F (1985)
Min Temperature 27 °F 15 °F -32 °F (1962)
Degree Days  
Heating Degree Days 34    
Moisture  
Dew Point 30 °F    
Average Humidity 92    
Maximum Humidity 96    
Minimum Humidity 85    
Precipitation  
Precipitation 0.00 in - - ()
Sea Level Pressure  
Sea Level Pressure 29.75 in    
Wind  
Wind Speed 5 mph (SSW)    
Max Wind Speed 10 mph    
Max Gust Speed -    
Visibility 5 miles    
Events Fog , Snow    
Averages and records for this station are not official NWS values.
T = Trace of Precipitation, MM = Missing Value Source: NWS Daily Summary

Daily Weather History Graph

Daily Weather History Graph

Search for Another Location

Airport or City:

Trip Planner

Search our weather history database for the weather conditions in past years. The results will help you decide how hot, cold, wet, or windy it might be!

Date:

Astronomy

Mar. 01, 2012 Rise Set
Actual Time 6:54 AM CST 6:05 PM CST
Civil Twilight 6:24 AM CST 6:35 PM CST
Nautical Twilight 5:51 AM CST 7:09 PM CST
Astronomical Twilight 5:17 AM CST 7:43 PM CST
Moon 11:14 AM CST (3/1) 2:05 AM CST (3/1)
Length of Visible Light 12h 10m
Length of Day
11h 11m
First Quarter, 57% of the Moon is Illuminated
Mar 1
First Quarter
Mar 8
Full
Mar 14
Last Quarter
Mar 22
New
Mar 30
First Quarter

Hourly Weather History & Observations

Time (CST) Temp. Windchill Dew Point Humidity Pressure Visibility Wind Dir Wind Speed Gust Speed Precip Events Conditions
12:32 AM 33.4 °F 28.1 °F 30.7 °F 90% 29.72 in 10.0 mi NW 5.8 mph - N/A   Overcast
12:52 AM 32.0 °F 27.5 °F 29.7 °F 91% 29.73 in 10.0 mi WNW 4.6 mph - N/A   Scattered Clouds
1:13 AM 32.0 °F 26.4 °F 29.8 °F 92% 29.74 in 10.0 mi WNW 5.8 mph - N/A   Overcast
1:32 AM 32.0 °F 27.5 °F 29.7 °F 91% 29.75 in 10.0 mi WNW 4.6 mph - N/A   Overcast
1:52 AM 29.7 °F 22.8 °F 27.0 °F 90% 29.76 in 10.0 mi West 6.9 mph - N/A   Mostly Cloudy
2:13 AM 31.1 °F 25.4 °F 29.1 °F 92% 29.77 in 10.0 mi West 5.8 mph - N/A   Overcast
2:32 AM 32.0 °F 27.5 °F 29.8 °F 92% 29.77 in 10.0 mi West 4.6 mph - N/A   Overcast
2:52 AM 32.0 °F 28.7 °F 29.8 °F 92% 29.76 in 10.0 mi WNW 3.5 mph - N/A   Overcast
3:13 AM 32.0 °F 26.4 °F 29.7 °F 91% 29.76 in 10.0 mi West 5.8 mph - N/A   Overcast
3:32 AM 32.0 °F 24.8 °F 30.0 °F 92% 29.76 in 10.0 mi West 8.1 mph - N/A   Overcast
3:52 AM 32.0 °F 26.4 °F 30.2 °F 93% 29.76 in 5.0 mi WNW 5.8 mph - N/A   Overcast
4:13 AM 32.0 °F 27.5 °F 30.6 °F 94% 29.76 in 5.0 mi West 4.6 mph - N/A   Overcast
4:32 AM 31.1 °F 27.7 °F 29.7 °F 94% 29.76 in 4.0 mi WNW 3.5 mph - N/A   Overcast
4:52 AM 29.7 °F 24.7 °F 28.2 °F 94% 29.75 in 3.0 mi NW 4.6 mph - N/A   Overcast
5:13 AM 29.7 °F - 28.4 °F 95% 29.75 in 3.0 mi Calm Calm - N/A   Overcast
5:32 AM 29.7 °F - 28.4 °F 95% 29.74 in 1.8 mi Calm Calm - N/A   Overcast
5:52 AM 29.7 °F 26.1 °F 28.4 °F 95% 29.75 in 0.8 mi WSW 3.5 mph - N/A   Overcast
6:13 AM 27.1 °F - 26.1 °F 96% 29.75 in 0.5 mi Calm Calm - N/A Fog Light Freezing Fog
6:32 AM 29.7 °F 26.1 °F 28.4 °F 95% 29.76 in 2.5 mi WSW 3.5 mph - N/A   Overcast
6:52 AM 29.7 °F - 28.4 °F 95% 29.76 in 2.5 mi Calm Calm - N/A   Overcast
7:12 AM 29.7 °F 26.1 °F 28.4 °F 95% 29.76 in 1.8 mi WSW 3.5 mph - N/A   Overcast
7:32 AM 29.7 °F 26.1 °F 28.4 °F 95% 29.77 in 0.2 mi West 3.5 mph - N/A Fog Light Freezing Fog
7:53 AM 29.7 °F - 28.4 °F 95% 29.77 in 0.2 mi Calm Calm - N/A Fog Light Freezing Fog
8:12 AM 29.7 °F 24.7 °F 28.4 °F 95% 29.77 in 0.8 mi West 4.6 mph - N/A   Overcast
8:32 AM 29.7 °F - 28.4 °F 95% 29.77 in 0.8 mi Calm Calm - N/A   Overcast
8:53 AM 29.7 °F - 28.4 °F 95% 29.78 in 1.8 mi Calm Calm - N/A   Overcast
9:32 AM 30.9 °F 26.2 °F 29.8 °F 96% 29.79 in 3.0 mi SSW 4.6 mph - N/A   Overcast
10:12 AM 30.9 °F 26.2 °F 29.8 °F 96% 29.79 in 3.0 mi SW 4.6 mph - N/A   Overcast
10:32 AM 32.0 °F 27.5 °F 30.7 °F 95% 29.79 in 5.0 mi SSW 4.6 mph - N/A   Overcast
10:53 AM 32.0 °F 28.7 °F 30.2 °F 93% 29.79 in 5.0 mi SSW 3.5 mph - N/A   Overcast
11:12 AM 34.3 °F 30.2 °F 32.0 °F 91% 29.78 in 5.0 mi South 4.6 mph - N/A   Overcast
11:33 AM 34.3 °F 29.2 °F 31.1 °F 88% 29.78 in 5.0 mi SSW 5.8 mph - N/A   Overcast
11:52 AM 34.3 °F 31.4 °F 31.5 °F 89% 29.78 in 4.0 mi SSW 3.5 mph - N/A   Overcast
12:12 PM 34.3 °F 29.2 °F 30.9 °F 87% 29.78 in 5.0 mi South 5.8 mph - N/A   Overcast
12:33 PM 34.3 °F 30.2 °F 31.1 °F 88% 29.76 in 5.0 mi South 4.6 mph - N/A   Overcast
12:52 PM 34.3 °F 31.4 °F 31.1 °F 88% 29.76 in 5.0 mi SSW 3.5 mph - N/A   Overcast
1:12 PM 34.3 °F 29.2 °F 30.7 °F 87% 29.76 in 5.0 mi SSW 5.8 mph - N/A   Overcast
1:33 PM 34.3 °F 27.7 °F 31.1 °F 88% 29.76 in 5.0 mi SSW 8.1 mph - N/A   Overcast
2:32 PM 34.3 °F 31.4 °F 30.2 °F 85% 29.73 in 10.0 mi SSE 3.5 mph - N/A   Overcast
2:53 PM 34.3 °F 28.4 °F 30.6 °F 86% 29.72 in 7.0 mi ESE 6.9 mph - N/A   Overcast
3:12 PM 34.3 °F 28.4 °F 30.7 °F 87% 29.72 in 7.0 mi ESE 6.9 mph - N/A   Scattered Clouds
3:32 PM 34.3 °F 28.4 °F 30.9 °F 87% 29.71 in 7.0 mi ESE 6.9 mph - N/A   Scattered Clouds
3:52 PM 34.3 °F 27.0 °F 30.6 °F 86% 29.70 in 10.0 mi East 9.2 mph - N/A   Scattered Clouds
4:12 PM 34.3 °F 26.5 °F 30.7 °F 87% 29.69 in 10.0 mi East 10.4 mph - N/A   Clear
4:52 PM 34.3 °F 29.2 °F 31.1 °F 88% 29.72 in 10.0 mi SE 5.8 mph - N/A   Clear
5:12 PM 34.3 °F 28.4 °F 31.6 °F 90% 29.72 in 7.0 mi ESE 6.9 mph - N/A   Mostly Cloudy
5:32 PM 34.3 °F 28.4 °F 32.0 °F 91% 29.72 in 4.0 mi ESE 6.9 mph - N/A Snow Light Snow
5:52 PM 34.3 °F 30.2 °F 32.0 °F 91% 29.72 in 1.0 mi ESE 4.6 mph - N/A Snow Light Snow
6:13 PM 34.3 °F 30.2 °F 32.4 °F 92% 29.73 in 1.2 mi ESE 4.6 mph - N/A Snow Light Snow
6:32 PM 34.3 °F 29.2 °F 32.5 °F 93% 29.73 in 2.5 mi ESE 5.8 mph - N/A Snow Light Snow
6:52 PM 34.3 °F 28.4 °F 32.9 °F 94% 29.72 in 2.0 mi SE 6.9 mph - N/A Snow Light Snow
7:12 PM 34.3 °F 27.7 °F 32.9 °F 94% 29.71 in 2.0 mi SE 8.1 mph - N/A Snow Light Snow
7:32 PM 34.3 °F 28.4 °F 32.9 °F 94% 29.71 in 2.5 mi SE 6.9 mph - N/A Snow Light Snow
7:52 PM 34.3 °F 30.2 °F 32.9 °F 94% 29.72 in 2.0 mi South 4.6 mph - N/A Snow Light Snow
8:13 PM 34.3 °F 29.2 °F 33.1 °F 95% 29.72 in 2.0 mi South 5.8 mph - N/A Snow Light Snow
8:32 PM 34.3 °F 29.2 °F 33.1 °F 95% 29.72 in 2.0 mi South 5.8 mph - N/A Snow Light Snow
8:52 PM 34.3 °F 29.2 °F 33.1 °F 95% 29.71 in 3.0 mi South 5.8 mph - N/A Snow Light Snow
9:12 PM 34.3 °F 29.2 °F 33.1 °F 95% 29.73 in 5.0 mi SSW 5.8 mph - N/A   Overcast
9:32 PM 34.3 °F 28.4 °F 33.1 °F 95% 29.73 in 7.0 mi South 6.9 mph - N/A   Overcast
9:53 PM 34.3 °F 29.2 °F 33.1 °F 95% 29.73 in 10.0 mi SSW 5.8 mph - N/A   Overcast
10:12 PM 34.3 °F 28.4 °F 33.1 °F 95% 29.74 in 10.0 mi SW 6.9 mph - N/A   Overcast
10:32 PM 34.3 °F 30.2 °F 33.1 °F 95% 29.74 in 10.0 mi SSW 4.6 mph - N/A   Overcast
10:52 PM 34.3 °F 28.4 °F 33.1 °F 95% 29.74 in 10.0 mi SSW 6.9 mph - N/A   Overcast
11:12 PM 34.3 °F 30.2 °F 32.9 °F 94% 29.73 in 10.0 mi SW 4.6 mph - N/A   Overcast
11:32 PM 34.3 °F 31.4 °F 32.9 °F 94% 29.73 in 10.0 mi SSW 3.5 mph - N/A   Overcast
11:53 PM 34.3 °F 31.4 °F 32.4 °F 92% 29.72 in 10.0 mi SW 3.5 mph - N/A   Overcast